Weather History for Whitefield, NH

Change the Weather History Date:

Monday, February 4, 2013

  Actual Average Record
Temperature  
Mean Temperature 11 °F -  
Max Temperature 19 °F 26 °F 45 °F (2005)
Min Temperature 3 °F 1 °F -18 °F (2011)
Degree Days  
Heating Degree Days 54    
Moisture  
Dew Point 5 °F    
Average Humidity 64    
Maximum Humidity 84    
Minimum Humidity 38    
Precipitation  
Precipitation 0.00 in - - ()
Sea Level Pressure  
Sea Level Pressure 29.71 in    
Wind  
Wind Speed 7 mph (West)    
Max Wind Speed 23 mph    
Max Gust Speed 31 mph    
Visibility 9 miles    
Events Snow    
Averages and records for this station are not official NWS values.
T = Trace of Precipitation, MM = Missing Value Source: NWS Daily Summary

Daily Weather History Graph

Daily Weather History Graph

Search for Another Location

Airport:

Trip Planner

Search our weather history database for the weather conditions in past years. The results will help you decide how hot, cold, wet, or windy it might be!

Date:

Astronomy

Feb. 04, 2013 Rise Set
Actual Time 7:00 AM EST 5:00 PM EST
Civil Twilight 6:30 AM EST 5:30 PM EST
Nautical Twilight 5:55 AM EST 6:05 PM EST
Astronomical Twilight 5:21 AM EST 6:39 PM EST
Moon 1:35 AM EST (2/4) 11:18 AM EST (2/4)
Length of Visible Light 11h 00m
Length of Day
9h 59m
Last Quarter, 37% of the Moon is Illuminated
Feb 4
Last Quarter
Feb 10
New
Feb 17
First Quarter
Feb 25
Full
Mar 4
Last Quarter

Hourly Weather History & Observations

Time (EST) Temp. Windchill Dew Point Humidity Pressure Visibility Wind Dir Wind Speed Gust Speed Precip Events Conditions
12:52 AM 14.0 °F - 9.0 °F 80% 29.70 in 10.0 mi Calm Calm - N/A   Overcast
1:52 AM 15.1 °F - 9.0 °F 77% 29.70 in 10.0 mi Calm Calm - N/A   Overcast
2:52 AM 15.1 °F - 10.0 °F 80% 29.70 in 8.0 mi Calm Calm - 0.00 in   Overcast
3:52 AM 14.0 °F - 10.0 °F 84% 29.68 in 9.0 mi Calm Calm - 0.00 in   Overcast
7:01 AM 15.8 °F 7.2 °F 8.6 °F 73% 29.65 in 9.0 mi WSW 5.8 mph - 0.00 in Snow Light Snow
7:29 AM 15.8 °F 5.1 °F 8.6 °F 73% 29.66 in 10.0 mi WSW 8.1 mph - 0.00 in   Overcast
7:37 AM 14.0 °F 3.9 °F 6.8 °F 73% 29.66 in 10.0 mi West 6.9 mph - 0.00 in   Overcast
7:52 AM 15.1 °F 5.2 °F 7.0 °F 70% 29.74 in 10.0 mi West 6.9 mph - 0.00 in   Overcast
8:11 AM 14.0 °F 2.9 °F 6.8 °F 73% 29.68 in 10.0 mi West 8.1 mph - N/A   Overcast
8:30 AM 14.0 °F 3.9 °F 6.8 °F 73% 29.68 in 10.0 mi WSW 6.9 mph - N/A   Overcast
8:52 AM 14.0 °F 2.9 °F 6.1 °F 71% 29.74 in 10.0 mi West 8.1 mph - N/A   Overcast
9:29 AM 15.8 °F 4.2 °F 6.8 °F 68% 29.66 in 10.0 mi West 9.2 mph - N/A   Scattered Clouds
9:42 AM 15.8 °F 0.9 °F 6.8 °F 68% 29.66 in 10.0 mi West 15.0 mph 23.0 mph N/A   Mostly Cloudy
9:52 AM 17.1 °F 3.0 °F 5.0 °F 59% 29.73 in 10.0 mi West 13.8 mph 19.6 mph N/A   Mostly Cloudy
9:59 AM 17.6 °F 3.2 °F 5.0 °F 58% 29.66 in 10.0 mi WNW 15.0 mph - N/A   Scattered Clouds
10:42 AM 17.6 °F 7.3 °F 6.8 °F 63% 29.67 in 10.0 mi WNW 8.1 mph - N/A   Overcast
10:49 AM 17.6 °F 4.3 °F 6.8 °F 63% 29.66 in 10.0 mi WNW 12.7 mph - N/A   Overcast
10:52 AM 18.0 °F 7.7 °F 6.1 °F 60% 29.73 in 10.0 mi West 8.1 mph - N/A   Overcast
11:52 AM 18.0 °F 5.4 °F 5.0 °F 57% 29.69 in 10.0 mi West 11.5 mph 17.3 mph N/A   Overcast
12:14 PM 17.6 °F 4.3 °F 8.6 °F 68% 29.62 in 2.5 mi WNW 12.7 mph 18.4 mph 0.00 in Snow Light Snow
12:20 PM 17.6 °F 5.0 °F 10.4 °F 73% 29.63 in 1.0 mi West 11.5 mph - 0.00 in Snow Light Snow
12:36 PM 17.6 °F 8.2 °F 12.2 °F 79% 29.63 in 1.0 mi WNW 6.9 mph - 0.00 in Snow Light Snow
12:50 PM 17.6 °F 7.3 °F 10.4 °F 73% 29.62 in 2.0 mi West 8.1 mph - 0.00 in Snow Light Snow
12:52 PM 17.1 °F 5.0 °F 10.0 °F 74% 29.69 in 2.5 mi WNW 10.4 mph - 0.00 in Snow Light Snow
12:59 PM 19.4 °F 6.0 °F 10.4 °F 68% 29.62 in 8.0 mi West 13.8 mph 18.4 mph 0.00 in Snow Light Snow
1:21 PM 19.4 °F 6.6 °F 8.6 °F 63% 29.62 in 9.0 mi West 12.7 mph 21.9 mph 0.00 in   Overcast
1:52 PM 19.9 °F 5.7 °F -0.0 °F 42% 29.69 in 10.0 mi West 16.1 mph 29.9 mph 0.00 in   Overcast
2:52 PM 19.9 °F 3.2 °F -2.0 °F 38% 29.70 in 10.0 mi West 23.0 mph 31.1 mph N/A   Partly Cloudy
3:52 PM 19.0 °F 4.0 °F -0.9 °F 42% 29.71 in 10.0 mi West 17.3 mph 26.5 mph N/A   Clear
4:52 PM 18.0 °F 4.2 °F -2.9 °F 40% 29.73 in 10.0 mi WNW 13.8 mph 26.5 mph N/A   Partly Cloudy
5:52 PM 15.1 °F 1.1 °F -0.9 °F 49% 29.77 in 10.0 mi West 12.7 mph 19.6 mph N/A   Clear
6:52 PM 12.9 °F 3.8 °F -0.9 °F 54% 29.81 in 10.0 mi West 5.8 mph - N/A   Clear
7:52 PM 10.9 °F 4.7 °F -5.1 °F 49% 29.83 in 10.0 mi West 3.5 mph - N/A   Clear
8:52 PM 10.0 °F - -6.0 °F 48% 29.85 in 10.0 mi Calm Calm - N/A   Clear
9:52 PM 8.1 °F -2.0 °F -7.1 °F 50% 29.87 in 10.0 mi West 5.8 mph - N/A   Partly Cloudy
10:52 PM 3.0 °F - -5.1 °F 69% 29.88 in 10.0 mi Calm Calm - N/A   Clear
11:52 PM 5.0 °F -4.1 °F -9.0 °F 52% 29.90 in 10.0 mi SW 4.6 mph - N/A   Clear